Regional Weather Roundup
Issued by NWS

Home | Current Version | Previous Version | Graphics & Text | Print | Product List | Glossary On
Versions: 1 2 3 4 5 6 7 8 9 10 11 12 13 14 15 16 17 18 19 20 21 22 23 24 25 26 27 28 29 30 31 32 33 34 35 36 37 38 39 40 41 42 43 44 45 46 47 48 49 50
000
ASUS43 KOAX 271802
RWRNE

WEATHER ROUNDUP FOR NEBRASKA
NATIONAL WEATHER SERVICE OMAHA NE
1200 PM CST FRI FEB 27 2015

NOTES: SATELLITE DATA IS BEING USED TO AUGMENT CLOUD COVER ABOVE
       12000 FEET.
       "FAIR" INDICATES FEW OR NO CLOUDS BELOW 12,000 FEET WITH NO
       SIGNIFICANT WEATHER AND/OR OBSTRUCTIONS TO VISIBILITY.

  * THESE STATIONS DO NOT REPORT WEATHER SUCH AS RAIN...SNOW OR FOG.

NEZ001>004-019>022-054>056-271900-
NEBRASKA PANHANDLE

CITY           SKY/WX    TMP DP  RH WIND       PRES   REMARKS
SCOTTSBLUFF    CLOUDY    20   8  60 S17G30    30.12F WCI   5
6HR MIN TEMP:   7; 6HR MAX TEMP:  20; 6HR PCP: TRACE;

ALLIANCE       CLOUDY    17   8  67 S21G28    30.14F WCI   0
6HR MIN TEMP:   2; 6HR MAX TEMP:  17; 6HR PCP: TRACE;

CHADRON        MOSUNNY   20  10  65 S18       30.16F WCI   5
6HR MIN TEMP:  -5; 6HR MAX TEMP:  20;

SIDNEY         LGT SNOW  16   8  71 S22       30.14F WCI  -2
6HR MIN TEMP:   3; 6HR MAX TEMP:  16; 6HR PCP: TRACE;

$$

NEZ057>060-069>072-079>082-271900-
SOUTHWEST NEBRASKA

CITY           SKY/WX    TMP DP  RH WIND       PRES   REMARKS
NORTH PLATTE   CLOUDY    17  -1  45 S16       30.35F WCI   2
6HR MIN TEMP:  -4; 6HR MAX TEMP:  18;

IMPERIAL       CLOUDY    18   7  62 SE18      30.28F WCI   2
6HR MIN TEMP:   3; 6HR MAX TEMP:  18; 6HR PCP: TRACE;

MCCOOK         CLOUDY    19   2  47 S10       30.39F WCI   7
6HR MIN TEMP:   8; 6HR MAX TEMP:  21;

$$

NEZ005>010-023>029-035>040-094-271900-
NORTH CENTRAL NEBRASKA

CITY           SKY/WX    TMP DP  RH WIND       PRES   REMARKS
VALENTINE      SUNNY     18   0  45 S13       30.32F WCI   5
6HR MIN TEMP:  -9; 6HR MAX TEMP:  19;

AINSWORTH      SUNNY     17  -1  45 SW9       30.35F WCI   6
BROKEN BOW     SUNNY     17   0  47 S9        30.39F WCI   6
6HR MIN TEMP:  -9; 6HR MAX TEMP:  17;

ORD            SUNNY     17  -4  39 S14       30.45F WCI   3
6HR MIN TEMP:  -9; 6HR MAX TEMP:  17;

$$

NEZ041-046>049-061>064-073>077-083>087-271900-
SOUTH CENTRAL NEBRASKA

CITY           SKY/WX    TMP DP  RH WIND       PRES   REMARKS
GRAND ISLAND   SUNNY     15  -1  49 CALM      30.51F
6HR MIN TEMP:  -5; 6HR MAX TEMP:  16;

HASTINGS       SUNNY     16  -3  43 VRB5      30.48F WCI   9
6HR MIN TEMP:  -4; 6HR MAX TEMP:  17;

HEBRON         MOSUNNY   15  -1  49 CALM      30.56F
KEARNEY *      SUNNY     16  -2  45 S6        30.46F WCI   7
$$

NEZ011>018-030>034-042>045-271900-
NORTHEAST NEBRASKA

CITY           SKY/WX    TMP DP  RH WIND       PRES   REMARKS
NORFOLK        SUNNY     14  -2  49 SW5       30.51F WCI   6
6HR MIN TEMP:  -9; 6HR MAX TEMP:  15;

BLAIR          SUNNY      9  -3  58 CALM      30.58S
COLUMBUS *     SUNNY     12  -6  44 S8        30.56F WCI   1
TEKAMAH        SUNNY     11   0  61 CALM      30.62F
6HR MIN TEMP:  -6; 6HR MAX TEMP:  12;

$$

NEZ050>053-065>068-078-088>093-271900-
SOUTHEAST NEBRASKA

CITY           SKY/WX    TMP DP  RH WIND       PRES   REMARKS
LINCOLN        SUNNY     16   0  49 CALM      30.61F
6HR MIN TEMP:  -6; 6HR MAX TEMP:  16;

OMAHA EPPLEY   MOSUNNY   11   2  67 CALM      30.63S
6HR MIN TEMP:  -1; 6HR MAX TEMP:  12;

FALLS CITY     SUNNY     14  -1  51 VRB3      30.63F
6HR MIN TEMP:  -4; 6HR MAX TEMP:  15;

$$

NEZ044-045-051>053-067-271900-
OMAHA AREA

CITY           SKY/WX    TMP DP  RH WIND       PRES   REMARKS
OMAHA EPPLEY   MOSUNNY   11   2  67 CALM      30.63S
6HR MIN TEMP:  -1; 6HR MAX TEMP:  12;

BLAIR          SUNNY      9  -3  58 CALM      30.58S
OFFUTT AFB     SUNNY     12  -3  51 VRB1      30.61F
$$



USA.gov is the U.S. government's official web portal to all federal, state and local government web resources and services.